TimeMDT,TemperatureF,Dew PointF,Humidity,Sea Level PressureIn,VisibilityMPH,Wind Direction,Wind SpeedMPH,Gust SpeedMPH,PrecipitationIn,Events,Conditions,WindDirDegrees,DateUTC
12:53 AM,75.0,28.9,18,29.72,10.0,SSW,11.5,-,N/A,,Clear,200,2013-07-21 06:53:00
1:53 AM,78.1,28.0,16,29.71,10.0,SSW,12.7,-,N/A,,Clear,200,2013-07-21 07:53:00
2:53 AM,73.0,28.9,20,29.72,10.0,South,12.7,-,N/A,,Clear,190,2013-07-21 08:53:00
3:53 AM,70.0,30.0,23,29.72,10.0,South,13.8,-,N/A,,Clear,190,2013-07-21 09:53:00
4:53 AM,68.0,30.0,24,29.73,10.0,South,11.5,-,N/A,,Clear,180,2013-07-21 10:53:00
5:53 AM,70.0,28.9,22,29.74,10.0,South,13.8,-,N/A,,Clear,190,2013-07-21 11:53:00
6:53 AM,70.0,28.9,22,29.76,10.0,SSW,11.5,-,N/A,,Clear,200,2013-07-21 12:53:00
7:53 AM,75.0,28.9,18,29.77,10.0,SSW,12.7,-,N/A,,Clear,210,2013-07-21 13:53:00
8:53 AM,81.0,28.9,15,29.78,10.0,SW,12.7,-,N/A,,Clear,230,2013-07-21 14:53:00
9:53 AM,84.9,28.9,13,29.79,10.0,WSW,12.7,-,N/A,,Clear,250,2013-07-21 15:53:00
10:53 AM,86.0,33.1,15,29.78,10.0,West,12.7,-,N/A,,Clear,270,2013-07-21 16:53:00
11:53 AM,89.1,33.1,14,29.78,10.0,West,11.5,-,N/A,,Clear,280,2013-07-21 17:53:00
12:53 PM,91.0,33.1,13,29.78,10.0,West,11.5,-,N/A,,Clear,280,2013-07-21 18:53:00
1:53 PM,95.0,30.9,10,29.75,10.0,West,13.8,-,N/A,,Clear,280,2013-07-21 19:53:00
2:53 PM,97.0,28.9,9,29.75,10.0,WNW,13.8,-,N/A,,Clear,290,2013-07-21 20:53:00
3:53 PM,96.1,28.0,9,29.74,10.0,WNW,9.2,-,N/A,,Clear,300,2013-07-21 21:53:00
4:53 PM,98.1,27.0,8,29.72,10.0,WNW,13.8,-,N/A,,Clear,290,2013-07-21 22:53:00
5:53 PM,97.0,27.0,8,29.70,10.0,WNW,13.8,-,N/A,,Clear,300,2013-07-21 23:53:00
6:53 PM,96.1,33.1,11,29.69,10.0,West,12.7,-,N/A,,Clear,280,2013-07-22 00:53:00
7:53 PM,91.9,33.1,12,29.69,10.0,West,10.4,-,N/A,,Clear,270,2013-07-22 01:53:00
8:53 PM,84.0,28.9,14,29.70,10.0,WSW,5.8,-,N/A,,Clear,250,2013-07-22 02:53:00
9:53 PM,81.0,25.0,13,29.72,10.0,SW,9.2,-,N/A,,Clear,220,2013-07-22 03:53:00
10:53 PM,71.1,24.1,17,29.75,10.0,South,13.8,-,N/A,,Clear,190,2013-07-22 04:53:00
11:53 PM,73.9,24.1,16,29.73,10.0,South,15.0,-,N/A,,Clear,180,2013-07-22 05:53:00